Regional Weather Roundup
Issued by NWS State College, PA

Home | Current Version | Previous Version | Text Only | Print | Product List | Glossary On
Versions: 1 2 3 4 5 6 7 8 9 10 11 12 13 14 15 16 17 18 19 20 21 22 23 24 25 26 27 28 29 30 31 32 33 34 35 36 37 38 39 40 41 42 43 44 45 46 47 48 49 50
000
ASUS41 KCTP 280310
RWRCTP

REGIONAL WEATHER ROUNDUP
NATIONAL WEATHER SERVICE STATE COLLEGE PA
1000 PM EST TUE JAN 27 2015

Note: "fair" indicates few or no clouds below 12,000 feet with no
significant weather and/or obstructions to visibility.

* = STATION THAT DOES NOT REPORT PRECIPITATION /E.G. RAIN...SNOW...ETC/
    THUNDER OR FOG.

PAZ002>004-007>009-013>016-020>023-029>032-280400-
WESTERN PENNSYLVANIA

CITY           SKY/WX    TMP DP  RH WIND       PRES   REMARKS
ERIE           MOCLDY    17  11  77 SW3       30.12S
MEADVILLE      CLOUDY    15  11  83 NW7       30.07R WCI   5
FRANKLIN*      CLOUDY    12   7  79 NW6       30.06S WCI   3
NEW CASTLE     FLURRIES  16  11  80 NW9       30.12R WCI   5
BEAVER COUNTY  NOT AVBL
BUTLER*        CLOUDY    18  10  73 NW7       30.09R WCI   8
PITTSBURGH INT FLURRIES  19  13  77 NW13      30.09R WCI   6
PITTSBURGH     CLOUDY    18   9  68 NW12      30.06R WCI   5
INDIANA*       CLOUDY    18  12  79 NW8       30.07R WCI   7
LATROBE        FLURRIES  18  14  86 NW6       30.09R WCI   9
WASHINGTON CO* MOCLDY    18  10  73 MISG      30.10R
$$

PAZ004>006-010>012-017>019-024>028-033>037-041-042-045-046-049>053-280400-
CENTRAL PENNSYLVANIA

CITY           SKY/WX    TMP DP  RH WIND       PRES   REMARKS
BRADFORD       CLEAR      7   0  73 NW8       29.95R WCI  -6
DUBOIS         CLEAR     11   5  77 NW7       29.98R WCI   0
CLEARFIELD     CLEAR     13   4  67 N10G23    29.99R WCI   0
JOHNSTOWN      CLOUDY    14   8  77 NW15      29.92R WCI  -1
ALTOONA        PTCLDY    17  10  74 NW16      29.95R WCI   2
STATE COLLEGE  CLEAR     18   5  57 N12       29.98R WCI   5
WILLIAMSPORT   PTCLDY    15   1  53 NW13G21   30.01R WCI   1
SELINSGROVE    CLEAR     17   3  54 N6        30.00R WCI   9
FT INDIANTOWN  PTCLDY    18   4  53 NW15G25   29.92R WCI   4
CAPITAL CITY   CLEAR     23   4  44 N8G20     29.95R WCI  14
HARRISBURG     PTCLDY    23   4  44 N18G24    29.94R WCI   9
YORK           CLEAR     25  10  53 NW12G24   29.91R WCI  14
$$

PAZ038>040-043-044-047-048-054-055-060>062-067>071-280400-
EASTERN PENNSYLVANIA

CITY           SKY/WX    TMP DP  RH WIND       PRES   REMARKS
SCRANTON       MOCLDY    14   3  61 N12G21    29.90R WCI   0
MOUNT POCONO   CLOUDY    10   2  69 NW20G31   29.73R WCI  -9
ALLENTOWN      MOCLDY    17   5  59 NW16G26   29.88R WCI   2
QUAKERTOWN*    NOT AVBL
READING        PTCLDY    19   6  57 NW16G23   29.91R WCI   4
LANCASTER      PTCLDY    21   4  47 N16G25    29.91R WCI   7
COATESVILLE    FAIR      23   9  54 N20G25    29.85R WCI   8
POTTSTOWN      PTCLDY    19   5  54 NW16G24   29.89R WCI   4
BLUE BELL      MOCLDY    23   9  54 NW8G21    29.86R WCI  14
DOYLESTOWN     MOCLDY    17   6  62 NW15G22   29.85R WCI   2
WILLOW GROVE   NOT AVBL
NORTH PHILA    MOCLDY    23   5  46 N20G32    29.88R WCI   8
PHILADELPHIA   MOCLDY    25   4  40 NW21G32   29.88R WCI  11
$$



USA.gov is the U.S. government's official web portal to all federal, state and local government web resources and services.